www.pogodaiklimat.ru
ПОГОДА в Чикопи-Фолсе
Время
(UTC), дата
08:11 20.11
10:30 20.11
10:40 20.11
10:56 20.11
11:09 20.11
11:56 20.11
12:36 20.11
12:37 20.11
12:43 20.11
12:49 20.11
12:56 20.11
13:08 20.11
13:31 20.11
13:56 20.11
14:31 20.11
14:49 20.11
14:56 20.11
15:56 20.11
16:09 20.11
16:56 20.11
17:31 20.11
17:56 20.11
18:56 20.11
19:56 20.11
20:56 20.11
21:56 20.11
22:11 20.11
22:20 20.11
22:56 20.11
23:56 20.11
00:56 20.11
01:56 20.11
02:56 20.11
03:56 20.11
04:56 21.11
05:56 21.11
06:56 21.11
07:56 21.11
08:56 21.11
09:56 21.11
10:56 21.11
11:56 21.11
12:56 21.11
13:56 21.11
14:56 21.11
15:56 21.11
16:56 21.11
17:56 21.11
Ветер
(напр.,м/с)
Видим. Явления Облачность Т
(С)
Тd
(С)
f
(%)
Тe
(С)
Тes
(С)
Комфортность P
(гПа)
Po
(гПа)
Тmin
(С)
Tmax
(С)
R
(мм)
R24
(мм)
S
(см)
С 3 16 км 10/10 210 м +3.0 +2.0 93 -2 -2 1011.2 1001.4
С 4 16 км 10/10 180 м +3.0 +2.0 93 -2 -2 1012.3 1002.4
С 4 5 км слабая морось, дымка 10/10 210 м +3.0 +2.0 93 -2 -2 1012.3 1002.4
С 4 5 км слабая морось, дымка 10/10 150 м +3.3 +2.0 91 -2 -2 1012.6 1002.8 +3.3 +4.0 0.5
С 4 11 км 10/10 180 м +3.0 +2.0 93 -2 -2 1012.6 1002.8
С 3 6 км слабая морось, дымка 10/10 150 м +3.3 +2.6 95 -1 -1 1013.0 1003.1
С 4 3 км слабая морось, дымка 10/10 150 м +4.0 +3.0 93 -1 -1 1013.3 1003.4
С 4 3 км слабая морось, дымка 10/10 150 м +4.0 +3.0 93 -1 -1 1013.3 1003.4
С 3 3 км слабая морось, дымка 10/10 150 м +3.0 +3.0 100 -2 -2 1013.3 1003.4
С 3 3 км слабая морось, дымка 10/10 150 м +4.0 +3.0 93 -0 -0 1013.3 1003.4
С 4 4 км слабая морось, дымка 10/10 150 м +3.5 +2.6 94 -2 -2 1013.3 1003.4
С 3 3 км дымка 10/10 150 м +3.0 +3.0 100 -2 -2 1013.3 1003.4
С 4 6 км дымка 10/10 150 м +4.0 +3.0 93 -1 -1 1013.3 1003.4
С 5 11 км 10/8 180 м
[средняя]
+3.7 +2.5 92 -2 -2 1013.6 1003.8
С 4 13 км 10/8 180 м
[средняя]
+4.0 +2.0 87 -1 -1 1013.6 1003.8
С 4 16 км 10/8 240 м
[средняя]
+4.0 +2.0 87 -1 -0 1013.6 1003.8
С 4 16 км 10/8 240 м
[средняя]
+4.0 +2.2 88 -1 -1 1013.6 1003.8
С 6 16 км 10/10 210 м +4.7 +2.1 83 -1 -1 1013.3 1003.4
С 4 11 км слабая морось 10/10 210 м +5.0 +2.0 81 +1 +1 1013.3 1003.4
С 4 6 км слабый дождь, дымка 10/10 180 м +4.2 +2.7 90 -0 -0 1013.3 1003.4 +3.2 +4.8
С 4 10 км слабый дождь, дымка 10/10 210 м +4.0 +2.0 87 -1 -1 1013.3 1003.4
СЗ 2 13 км слабый дождь 10/8 210 м
[средняя]
+3.9 +2.6 91 0 +1 1013.6 1003.8
СЗ 3 16 км слабый дождь 10/10 420 м +3.7 +1.9 88 -1 -1 1014.0 1004.1
С 4 16 км слабый дождь 10/10 330 м +3.3 +1.0 85 -2 -2 1014.7 1004.8
С 6 16 км слабый дождь 10/10 360 м +3.0 +1.0 87 -3 -3
С 4 16 км слабый дождь 10/10 570 м +3.0 -1.0 75 -2 -2
С 3 16 км слабый дождь 10/10 570 м +3.0 +1.0 87 -1 -1 1006.5
С 4 16 км 10/10 570 м +3.0 0.0 81 -2 -2 1016.0 1006.1
С 4 16 км 8/8 1170 м +2.4 -0.2 83 -3 -3 1016.4 1006.5 +2.4 +4.4
С 2 16 км 10/10 840 м +2.2 -0.2 84 -2 -2 1017.0 1007.1
СЗ 1 16 км 10/10 810 м +2.1 -0.5 83 -1 -1 1007.8
СЗ 2 16 км 10/10 1050 м +2.1 0.0 86 -2 -2 1018.1 1008.1
СЗ 1 16 км 8/8 1110 м +2.0 -0.6 83 -1 -1 1018.4 1008.5
З 2 16 км 10/10 1140 м +1.5 -0.7 85 -2 -2 1018.4 1008.5
0 16 км ясно +1.3 -1.1 84 0 0 1018.4 1008.5 +0.7 +2.3
С 2 16 км ясно +0.4 -2.0 84 -4 -4 1019.1 1009.1
СВ 1 16 км ясно -1.0 -3.0 86 -4 -4 1019.5 1009.5
С 3 16 км ясно -0.5 -2.2 88 -5 -5 1019.8 1009.8
0 16 км ясно -3.0 -4.0 93 -4 -4 1010.5
0 16 км ясно -3.0 -3.0 100 -4 -4 1010.8
0 16 км туман ясно -3.0 -4.0 93 -4 -4 1021.5 1011.5 1.0
0 16 км ясно -1.0 -1.6 96 -2 -2 1022.2 1012.2
С 2 16 км ясно +1.7 -0.7 84 -2 -2 1022.2 1012.2
С 4 16 км 2/0 7500 м
[верхняя]
+3.8 -2.0 66 -0 +1 1022.5 1012.5
СЗ 2 16 км ясно +5.9 -1.7 58 +3 +6 1021.8 1011.8
С 3 16 км ясно +7.3 -1.7 53 +5 +8 1020.4 1010.5
0 16 км 2/0 7500 м
[верхняя]
+8.4 -2.0 48 +8 +14 1019.4 1009.5 -3.6 +8.4
0 16 км 2/0 7500 м
[верхняя]
+9.0 -2.0 46 +9 +14 1018.7 1008.8
Местоположение метеостанции Westover Air Force Base: широта 42.2000 долгота -72.5333 высота над уровнем моря 75 м.
В архиве по умолчанию представлена погода в Чикопи-Фолсе за последние 1-2 суток. Обновление информации о фактической погоде в базе происходит ежечасно! Архивные данные за месяц целиком и за предыдущие месяцы Вы можете получить, выбрав интересующий диапазон дат из раскрывающегося списка и нажав кнопку "Ввод!".
Внимание! Архив погоды МЕТАР в базе сайта по станциям, не включенным в климатический монитор, хранится не более 60 дней. Нет смысла пытаться выбрать более раннюю дату.
*Определитесь, кто Вы:
Внимание! Время в таблицах - всемирное. Для получения местного времени необходимо прибавить поправку, которая равна ч.
Смотрите также архив погоды в соседних городах и на ближайших метеорологических станциях:
Партнеры нашего сайта:      
Пояснения к столбцам:
  • Ветер - указаны скорость ветра в м/с - средняя за 10 мин, порывы в срок и между сроками (в фигурных скобках) и направление, откуда дует ветер: С - северный,
  • СВ - северо-восточный, В - восточный, ЮВ - юго-восточный, Ю - южный, ЮЗ - юго-западный, З - западный, СЗ - северо-западный.
  • Видимость - горизонтальная дальность видимости в метрах или километрах. При видимости от 1 до 10 км при отсутствии осадков обычно наблюдается дымка, при ухудшении видимости до 1 км и менее - туман. В сухую погоду видимость может ухудшаться дымом, пылью или мглою.
  • Явления - указаны атмосферные явления, наблюдавшиеся в срок или в последний час перед сроком; фигурными скобками обозначены явления, наблюдавшиеся между сроками (за 1-3 часа до срока); квадратными скобками обозначены град или гололедные отложения с указанием их диаметра в мм.
  • Облачность - указаны через наклонную черту общая и нижняя облачность в баллах и высота нижней границы облаков в метрах; квадратными скобками обозначены формы облаков: Ci - перистые, Cs - перисто-слоистые, Cc - перисто-кучевые, Ac - высококучевые, As - высокослоистые, Sc - слоисто-кучевые, Ns - слоисто-дождевые, Cu - кучевые, Cb - кучево-дождевые. Подробнее классификацию облаков см. в Атласе облаков (PDF).
  • T - Температура воздуха - температура, измеренная на высоте 2 м над землей.
  • Td - Температура точки росы - температура, при понижении до которой содержащийся в воздухе водяной пар достигнет насыщения.
  • f - Относительная влажность воздуха - влажноcть воздуха, измеренная на высоте 2 м над землей.
  • Te - Эффективная температура - температура, которую ощущает одетый по сезону человек в тени. Характеристика душности погоды. При расчете учитывается влияние влажности воздуха и скорости ветра на теплоощущения человека.
  • Tes - Эффективная температура на солнце - температура, которую ощущает человек, с поправкой на солнечный нагрев. Характеристика знойности погоды. Зависит от высоты солнца над горизонтом, облачности и скорости ветра. Ночью, в пасмурную погоду, а также при ветре 12 м/с и более поправка равна нулю.
  • P - Атмосферное давление - приведенное к уровню моря атмосферное давление.
  • Po - Атмосферное давление - измеренное на уровне метеостанции атмосферное давление.
  • Tmin - Минимальная температура - минимум температуры воздуха на высоте 2 м над землей.
  • Tmax - Максимальная температура - максимум температуры воздуха на высоте 2 м над землей.
  • R - Количество осадков - Количество выпавших осадков за период времени, мм. При наведении курсора мыши на число - период времени, за который выпало указанное количество осадков.
  • R24 - Количество осадков - Количество выпавших осадков за 24 часа, мм.
  • S - Снежный покров - Высота снежного покрова, см. При наведении курсора мыши на число - состояние снежного покрова и степень покрытия местности в баллах.